Location: Zengebe
(1.4833°N, 32.5167°E)
Time: 09:34:45
(UTC+00:00)

Cosmos 1515 Rocket - Pass Details

Date: 07 June 2020
Orbit: 605 x 631 km, 82.5° (Epoch: 03 July)

Event Time Altitude Azimuth Distance (km) Brightness Sun altitude
Rises 01:57:49 0° 357° (N) 2,846 7.3 -24.8°
Reaches altitude 10° 02:00:01 10° 357° (N) 1,943 6.4 -24.3°
Maximum altitude 02:04:19 87° 87° (E) 609 3.4 -23.3°
Enters shadow 02:05:11 57° 172° (S) 714 3.7 -23.1°
